Regional Weather Roundup
Issued by NWS

Home | Current Version | Previous Version | Graphics & Text | Print | Product List | Glossary On
Versions: 1 2 3 4 5 6 7 8 9 10 11 12 13 14 15 16 17 18 19 20 21 22 23 24 25 26 27 28 29 30 31 32 33 34 35 36 37 38 39 40 41 42 43 44 45 46 47 48 49 50
000
ASUS43 KIND 240859
RWRIN

WEATHER ROUNDUP FOR INDIANA
NATIONAL WEATHER SERVICE INDIANAPOLIS IN
500 AM EDT SUN JUL 24 2016

NOTE: "FAIR" INDICATES FEW OR NO CLOUDS BELOW 12,000 FEET WITH NO
SIGNIFICANT WEATHER AND/OR OBSTRUCTIONS TO VISIBILITY.

* - STATION DOES NOT REPORT WEATHER SUCH AS PRECIPITATION OR FOG.

+ - STATION NOT QUALITY CONTROLLED BY THE NATIONAL WEATHER SERVICE.
    USE DATA WITH CAUTION...ESPECIALLY DEWPOINT AND RELATIVE
    HUMIDITY OBSERVATIONS.

INZ001>003-010>013-019-020-241000-
NORTHWEST INDIANA

CITY           SKY/WX    TMP DP  RH WIND       PRES   REMARKS
KNOX *+        CLOUDY    70  68  94 SE3       29.95S
MONTICELLO +   CLOUDY    70  66  87 SE3       29.96S

$$

LMZ046-743>745-241000-
SOUTHERN LAKE MICHIGAN

STATION/POSITION TIME  TEMP    WIND        PRES    WAVE
                       AIR SEA DIR/SP/G            HT
                 (UTC) (F)     (DEG/KT/KT) (MB)    (FT)
BURNS HARBOR     0803   74     180/  6/ 11 1013.9F
MICHIGAN CITY    0800   71     110/  7/  9   N/A
5NW MICH CITY    0800   73 73  140/ 10/ 14   N/A     2

$$

INZ004-005-014>016-021>024-241000-
NORTH CENTRAL INDIANA

CITY           SKY/WX    TMP DP  RH WIND       PRES   REMARKS
GOSHEN         CLOUDY    71  68  90 CALM      29.98F
SOUTH BEND     LGT RAIN  70  70 100 SE8       29.96F

$$

INZ006>009-017-018-025>027-241000-
NORTHEAST INDIANA

CITY           SKY/WX    TMP DP  RH WIND       PRES   REMARKS
ANGOLA *+        N/A     73  66  78 NW3       29.99F
FORT WAYNE     CLOUDY    73  68  84 CALM      29.98F

$$

INZ028-029-035-036-043>045-051>053-241000-
WEST CENTRAL INDIANA

CITY           SKY/WX    TMP DP  RH WIND       PRES   REMARKS
CRAWFORDSVL +  CLOUDY    72  72 100 E3        29.98F
LAFAYETTE      CLOUDY    71  69  93 SE5       29.96F
TERRE HAUTE    CLOUDY    75  73  93 CALM      29.96S FOG

$$

INZ030>032-037>040-046>048-054>057-064-065-241000-
CENTRAL INDIANA

CITY           SKY/WX    TMP DP  RH WIND       PRES   REMARKS
INDIANAPOLIS   MOCLDY    78  73  84 NE7       29.99F
-EAGLE CREEK   CLOUDY    78  69  73 NE5       29.99F
KOKOMO *+      CLOUDY    70  66  88 SE7       29.99F
SHELBYVILLE    CLOUDY    75  71  87 CALM      29.99S

$$

INZ033-034-041-042-049-050-058-059-241000-
EAST CENTRAL INDIANA

CITY           SKY/WX    TMP DP  RH WIND       PRES   REMARKS
MUNCIE         CLOUDY    75  69  81 W3        30.01F

$$

INZ060-061-067>069-081>083-085>088-241000-
SOUTHWEST INDIANA

CITY           SKY/WX    TMP DP  RH WIND       PRES   REMARKS
EVANSVILLE     CLEAR     78  75  90 CALM      29.96S FOG
HUNTINGBURG *+ CLEAR     77  73  88 CALM      29.97R

$$

INZ062-063-066-070>080-084-089>092-241000-
SOUTH CENTRAL AND SOUTHEAST INDIANA

CITY           SKY/WX    TMP DP  RH WIND       PRES   REMARKS
BLOOMINGTON    CLOUDY    73  71  93 CALM      29.99S FOG
MADISON *+     CLOUDY    75  72  88 CALM      30.01R
SEYMOUR +      CLOUDY    75  75 100 CALM      29.98R

$$





USA.gov is the U.S. government's official web portal to all federal, state and local government web resources and services.